Location: Newark
(25.6108°S, 54.5803°W)
Time: 00:29:18
(UTC+00:00)

Vanguard 3 - Pass Details

Date: 01 November 2020
Orbit: 508 x 3262 km, 33.3° (Epoch: 24 November)

Event Time Altitude Azimuth Distance (km) Brightness Sun altitude
Rises 22:09:57 0° 255° (WSW) 3,006 13.2 -4.1°
Reaches altitude 10° 22:12:48 10° 241° (WSW) 1,889 10.8 -4.7°
Maximum altitude 22:16:14 26° 182° (S) 1,049 8.0 -5.4°
Drops below altitude 10° 22:19:26 10° 123° (ESE) 1,743 8.5 -6.1°
Enters shadow 22:21:33 - 110° (ESE) 2,560 9.3 -6.5°
